Content
SEND FEEDBACK

Daily
Averages
Monthly
Summary
Belgium

HASSELT, BELGIUM


Home > Europe > Belgium
Elevation: 180 feet     Latitude: 51 10N     Longitude: 005 28E

WEATHER
 
SELECT A DAY
Number of Records: 167,251;   Date Range: 7/1/96 - 4/23/14
 
SHARE

PRINT THIS DATA

[ ← Previous Day ]
WEATHER ALMANAC - FEBRUARY 13, 2013
[ Next Day → ]
[ °C ]   °F
Weather ElementAverageHighLow
Temperature30.5 °F37.4 °F (1:55 pm)26.6 °F (6:55 am)
Dewpoint22.5 °F28.4 °F (10:25 am)17.6 °F (11:55 pm)
Humidity72 %93 % (7:48 am)41 % (4:00 pm)
Barometer30.24 in30.32 in (7:00 pm)30.12 in (12:55 am)
Wind Speed2.2 mph5.8 mph (10:55 am)
Weather ElementAverage
Visibility4.2 mi
Wind DirectionNNE (15.1 °)

Weather ElementTotal
Precipitation---
Heating Degree Days33 (Base 65)
Averaged from 54 records on February 13, 2013
WEATHER CONDITIONS BREAKOUT
WIND DIRECTION BREAKOUT
WEATHER BY HOUR - FEBRUARY 13, 2013
[ °C ]   °F
Local TimeTemperatureDewpointHumidityBarometerVisibilityWind DirectionWind SpeedGust SpeedPrecipitationEventsConditions
12:55 AM30.2 °F19.4 °F64 %30.12 in4.3 miVariable2.3 mphMostly Cloudy
1:00 AM29.0 °F20.0 °F59 %30.15 in4.0 mi°2.2 mphMostly Cloudy
1:25 AM28.4 °F21.2 °F74 %30.12 in4.3 miCalmMostly Cloudy
1:55 AM28.4 °F21.2 °F74 %30.12 in3.7 miCalmMostly Cloudy
2:25 AM28.4 °F21.2 °F74 %30.12 in3.7 miVariable1.2 mphMostly Cloudy
3:25 AM28.4 °F23.0 °F80 %30.15 in3.7 miVariable1.2 mphMostly Cloudy
3:55 AM28.4 °F23.0 °F80 %30.15 in3.7 miCalmMostly Cloudy
4:00 AM28.0 °F22.0 °F72 %30.18 in4.0 miCalmMostly Cloudy
4:25 AM28.4 °F23.0 °F80 %30.15 in3.1 miVariable1.2 mphMostly Cloudy
4:55 AM28.4 °F23.0 °F80 %30.15 in3.7 miVariable1.2 mphMostly Cloudy
5:24 AM28.4 °F23.0 °F80 %30.15 in3.1 miCalmMostly Cloudy
5:25 AM28.4 °F23.0 °F80 %30.15 in3.1 miCalmMostly Cloudy
5:55 AM28.4 °F23.0 °F80 %30.18 in3.1 miCalmMostly Cloudy
6:25 AM28.4 °F23.0 °F80 %30.18 in3.1 miVariable1.2 mphMostly Cloudy
6:55 AM26.6 °F23.0 °F86 %30.21 in3.1 miCalmMostly Cloudy
7:00 AM27.0 °F23.0 °F80 %30.23 in3.0 miCalmMist
7:21 AM26.6 °F23.0 °F86 %30.21 in2.5 miCalmMostly Cloudy
7:25 AM26.6 °F23.0 °F86 %30.21 in2.5 miCalmMostly Cloudy
7:48 AM26.6 °F24.8 °F93 %30.21 inVariable1.2 mphMostly Cloudy
7:55 AM26.6 °F24.8 °F93 %30.21 inVariable1.2 mphMostly Cloudy
8:21 AM28.4 °F24.8 °F86 %30.24 in2.2 miVariable1.2 mphMostly Cloudy
8:53 AM28.4 °F26.6 °F93 %30.24 in2.5 miCalmSnowLight Snow
10:00 AM32.0 °F28.0 °F79 %30.28 in3.0 mi°4.5 mphSnowLight Snow
10:25 AM32.0 °F28.4 °F87 %30.24 inEast (90°)4.6 mphPartly Cloudy
10:55 AM32.0 °F28.4 °F87 %30.27 in3.7 miEast (80°)5.8 mphMostly Cloudy
11:21 AM33.8 °F28.4 °F81 %30.27 in3.7 miEast (100°)4.6 mphPartly Cloudy
11:25 AM35.6 °F28.4 °F75 %30.27 in3.7 miEast (100°)4.6 mphPartly Cloudy
11:55 AM35.6 °F26.6 °F70 %30.27 in3.7 miENE (70°)4.6 mphPartly Cloudy
12:25 PM35.6 °F23.0 °F60 %30.27 in3.7 miVariable3.5 mphPartly Cloudy
1:00 PM36.0 °F23.0 °F48 %30.30 in4.0 mi°4.5 mphPartly Cloudy
1:01 PM35.6 °F23.0 °F60 %30.27 in5.0 miVariable3.5 mphPartly Cloudy
1:25 PM33.8 °F23.0 °F65 %30.27 in5.0 miVariable3.5 mphPartly Cloudy
1:55 PM37.4 °F23.0 °F56 %30.27 in5.0 miVariable3.5 mphPartly Cloudy
2:25 PM37.4 °F21.2 °F52 %30.27 in5.0 miVariable2.3 mphPartly Cloudy
2:55 PM35.6 °F21.2 °F56 %30.27 in5.0 miVariable3.5 mphPartly Cloudy
3:25 PM35.6 °F19.4 °F52 %30.27 in5.0 miVariable3.5 mphPartly Cloudy
3:55 PM37.4 °F21.2 °F52 %30.27 in5.0 miEast (90°)5.8 mphPartly Cloudy
4:00 PM37.0 °F22.0 °F41 %30.30 in5.0 miEast (90°)4.5 mphScattered Clouds
4:25 PM35.6 °F19.4 °F52 %30.27 in5.0 miEast (90°)4.6 mphPartly Cloudy
4:55 PM33.8 °F19.4 °F56 %30.27 in5.6 miVariable3.5 mphPartly Cloudy
5:25 PM32.0 °F19.4 °F60 %30.27 in5.6 miVariable2.3 mphPartly Cloudy
5:36 PM32.0 °F19.4 °F60 %30.27 in5.6 miVariable1.2 mphPartly Cloudy
5:55 PM30.2 °F19.4 °F64 %30.27 in5.6 miVariable2.3 mphClear
6:25 PM28.4 °F21.2 °F74 %30.30 in5.6 miVariable2.3 mphClear
6:55 PM28.4 °F23.0 °F80 %30.30 in5.0 miVariable2.3 mphClear
7:00 PM28.0 °F23.0 °F72 %30.32 in5.0 mi°2.2 mph
7:25 PM28.4 °F23.0 °F80 %30.30 in5.0 miVariable1.2 mphClear
8:55 PM28.4 °F21.2 °F74 %30.27 in5.0 miVariable2.3 mphClear
9:25 PM26.6 °F21.2 °F80 %30.30 in5.0 miVariable2.3 mphClear
9:55 PM26.6 °F21.2 °F80 %30.27 in5.0 miVariable1.2 mphClear
10:00 PM28.0 °F20.0 °F63 %30.31 in5.0 mi°2.2 mph
10:25 PM28.4 °F19.4 °F69 %30.27 in5.0 miVariable2.3 mphClear
10:55 PM26.6 °F19.4 °F74 %30.27 in5.0 miVariable2.3 mphClear
11:55 PM26.6 °F17.6 °F69 %30.27 in5.0 miVariable2.3 mphClear
Hourly data recorded from EBBL, located 0.18 miles away from Hasselt, Belgium







STORIES FROM OUR PARTNERS